Regional Weather Roundup
Issued by NWS Jackson, KY

Home | Current Version | Previous Version | Graphics & Text | Print | Product List | Glossary On
Versions: 1 2 3 4 5 6 7 8 9 10 11 12 13 14 15 16 17 18 19 20 21 22 23 24 25 26 27 28 29 30 31 32 33 34 35 36 37 38 39 40 41 42 43 44 45 46 47 48 49 50
000
ASUS43 KJKL 021610
RWRJKL

EAST KENTUCKY HOURLY WEATHER ROUNDUP
NATIONAL WEATHER SERVICE JACKSON KY
1200 PM EDT THU OCT 02 2014

NOTE: "FAIR" INDICATES FEW OR NO CLOUDS BELOW 12,000 FEET WITH
NO SIGNIFICANT WEATHER AND/OR OBSTRUCTIONS TO VISIBILITY.

* THESE REPORTS ARE NOT UNDER NWS QUALITY CONTROL AND MAY NOT
  REPORT WEATHER SUCH AS PRECIPITATION AND FOG.

KYZ079-080-083-085-087-088-110-112-115-119-120-021700
...EASTERN KENTUCKY...

CITY           SKY/WX    TMP DP  RH WIND       PRES   REMARKS
JACKSON        SUNNY     74  59  59 VRB3      30.10F
LONDON         SUNNY     78  59  51 SW8       30.10F
SOMERSET*      SUNNY     77  59  53 S3        30.09F
MONTICELLO*    SUNNY     82  64  54 S10       30.09F
WILLIAMSBURG*  SUNNY     75  63  64 SE5       30.10F
MIDDLESBORO*   SUNNY     75  59  57 S7        30.12F
HARLAN APT*    SUNNY     73  55  53 CALM      30.13F
BLACK MTN*       N/A     68  54  60 CALM        N/A
PIKEVILLE APT* SUNNY     73  59  60 SE3       30.12F
BIG SANDY*     SUNNY     76  60  58 S5        30.11F
MOREHEAD APT*  SUNNY     77  61  57 S5        30.09F
$$

KYZ035-036-041-042-044-050-067-078-099-021700
...CENTRAL KENTUCKY...

CITY           SKY/WX    TMP DP  RH WIND       PRES   REMARKS
MT STERLING*   SUNNY     77  61  57 SW8       30.08S
FLEMING/MASON* SUNNY     81  59  47 S9        30.06F
DANVILLE*      SUNNY     79  59  50 SW10      30.07F
RICHMOND*      SUNNY     79  57  47 SW8       30.06F
LEXINGTON      SUNNY     81  60  48 S10       30.05F
FRANKFORT      SUNNY     80  61  52 S9        30.02F
$$

KYZ091>093-OHZ055-061-077-WVZ005-015-034-035-042-021700
...SOUTHERN OHIO/WEST VIRGINIA...

CITY           SKY/WX    TMP DP  RH WIND       PRES   REMARKS
COVINGTON      PTSUNNY   80  59  48 S9        30.02F
COLUMBUS       MOSUNNY   73  57  57 SE8       30.03F
DAYTON         PTSUNNY   76  59  55 S14       30.00F
WILMINGTON     MOSUNNY   80  58  46 S13       30.02F
HUNTINGTON     SUNNY     74  60  61 S6        30.07F
CHARLESTON     MOSUNNY   75  61  61 CALM      30.09F
PINEVILLE*     MOSUNNY   76  63  64 MISG      30.19F
BECKLEY        MOSUNNY   75  51  43 VRB6      30.17F
BLUEFIELD      SUNNY     75  51  43 SW5       30.19F
$$

VAZ002-007-008-TNZ017-027-036-066-071-021700
...SOUTHWEST VIRGINIA/EAST TENNESSEE...

CITY           SKY/WX    TMP DP  RH WIND       PRES   REMARKS
WISE*          SUNNY     73  52  46 W7        30.19F
JONESVILLE*    SUNNY     73  55  53 CALM      30.16F
ABINGDON*      SUNNY     74  58  56 SW7       30.17F
BRISTOL        MOSUNNY   73  55  53 CALM      30.15F
KNOXVILLE      MOSUNNY   76  58  53 CALM      30.11F
OAK RIDGE      SUNNY     75  60  59 CALM      30.13F
CROSSVILLE     MOSUNNY   79  60  52 S6        30.13F
NASHVILLE      MOSUNNY   83  65  54 S15       30.03F
$$

...KEY TO REMARKS...
VSB - VISIBILITY IN MILES
WCI - WIND CHILL INDEX
HX  - HEAT INDEX

$$



USA.gov is the U.S. government's official web portal to all federal, state and local government web resources and services.